Find Starlink 4021

NORAD ID: 53149 Int'l Des: 2022-083 Owner: SPXS Country: US Constellation: starlink operational
LEOCIRCULAR

实时位置

正在加载3D地球...

关于 Starlink 4021

正在加载描述...

即将过境

Passes for default location (London). Set your location on the main map for personalized predictions.

高度历史

Loading altitude history...

两行轨道根数

1 53149U 22083T 26127.08192458 -.00000728 00000-0 -27647-4 0 9991
2 53149 53.2198 262.1899 0001477 91.7589 268.3572 15.08827364210175
Epoch: May 7, 2026 • Age: 8 hours

当前状态

高度 543.9 km
速度 7.59 km/s
星下点 -13.98°S, 122.77°W
发射日期 Jul 17, 2022
运行时间 3.8 years
类型 internet

技术详情

分类 Payload
质量 297.00 kg
干质量 275.00 kg
总质量 297.00 kg
长度 0.20 m
直径 2.80 m
跨度 9.00 m
形状 Box + pan
制造商 SPXS
平台类型 Starlink
阶段状态 In Orbit
所有者/国家 SPXS/US

Most Searched